Location: LC-39B
(28.6273°N, 80.6211°W)
Time: 23:54:19
(UTC+00:00)

ISS - Visible Passes

Search period start: 24 April 2014 00:00
Search period end: 04 May 2014 00:00
Orbit: 407 x 424 km, 51.7° (Epoch: 24 April)

Date Brightness Start Highest point End Pass type
(mag) Time Alt. Az. Time Alt. Az. Time Alt. Az.
24 Apr -0.8 00:43:10 10° N 00:44:42 13° NE 00:46:14 10° ENE visible
24 Apr -0.2 02:18:20 10° NW 02:19:11 16° WNW 02:19:11 16° WNW visible
25 Apr -3.1 01:29:37 10° NW 01:32:41 66° N 01:32:41 66° N visible
26 Apr -2.3 00:41:04 10° NNW 00:44:11 34° NE 00:46:10 18° E visible
26 Apr 0.0 02:18:52 10° W 02:19:04 11° W 02:19:04 11° W visible
27 Apr -1.7 01:29:00 10° WNW 01:31:55 27° SW 01:32:33 25° SSW visible
28 Apr -2.8 00:39:44 10° NW 00:43:03 59° SW 00:46:02 12° SSE visible
30 Apr -0.5 00:39:13 10° W 00:41:20 16° SW 00:43:27 10° SSW visible
